Location: Demre
(36.2444°N, 29.9850°E)
Time: 04:37:01
(UTC+00:00)

CZ-4C R/B - Pass Details

Date: 11 March 2026
Orbit: 477 x 1500 km, 63.4° (Epoch: 21 April)

Event Time Altitude Azimuth Distance (km) Brightness Sun altitude
Rises 18:31:40 0° 321° (NW) 3,963 6.5 -30.2°
Reaches altitude 10° 18:34:16 10° 315° (NW) 3,134 5.9 -30.7°
Maximum altitude 18:41:39 47° 245° (WSW) 1,747 3.9 -32.0°
Enters shadow 18:46:19 27° 189° (S) 2,505 4.4 -32.9°
